[keps] orb09018.amsat

Ray Hoad r.hoad at att.net
Sun Jan 18 21:12:14 PST 2009


SB KEPS @ AMSAT  $ORB09018.O
Orbital Elements  09018.OSCAR

HR AMSAT ORBITAL ELEMENTS FOR OSCAR SATELLITES
FROM WA5QGD FORT WORTH,TX January 18, 2009
Send Subscribe/unsubscribe to KEPS at 
http://www.amsat.org/mailman/listinfo/keps
BID: ORB09018.O
TO ALL RADIO AMATEURS BT

Satellite: AO-07
Catalog number: 07530
Epoch time:      09017.65368652
Element set:    0382
Inclination:      101.4437 deg
RA of node:       047.7725 deg
Eccentricity:    0.0011832
Arg of perigee:   202.9754 deg
Mean anomaly:     157.0789 deg
Mean motion:   12.53575118 rev/day
Decay rate:       -2.7e-07 rev/day^2
Epoch rev:           56385
Checksum:              312

Satellite: AO-10
Catalog number: 14129
Epoch time:      09018.21569881
Element set:     610
Inclination:      026.0191 deg
RA of node:       175.7551 deg
Eccentricity:    0.5965168
Arg of perigee:   190.7784 deg
Mean anomaly:     146.4273 deg
Mean motion:   02.05867219 rev/day
Decay rate:       1.72e-06 rev/day^2
Epoch rev:           19253
Checksum:              316

Satellite: UO-11
Catalog number: 14781
Epoch time:      09018.56689864
Element set:     864
Inclination:      098.1287 deg
RA of node:       061.5069 deg
Eccentricity:    0.0010134
Arg of perigee:   099.0987 deg
Mean anomaly:     261.1352 deg
Mean motion:   14.79690995 rev/day
Decay rate:       2.35e-06 rev/day^2
Epoch rev:           33570
Checksum:              341

Satellite: RS-15
Catalog number: 23439
Epoch time:      09017.82495191
Element set:    0211
Inclination:      064.8134 deg
RA of node:       147.9632 deg
Eccentricity:    0.0145967
Arg of perigee:   080.9446 deg
Mean anomaly:     280.7962 deg
Mean motion:   11.27553530 rev/day
Decay rate:       -3.9e-07 rev/day^2
Epoch rev:           57916
Checksum:              326

Satellite: FO-29
Catalog number: 24278
Epoch time:      09018.54557100
Element set:     954
Inclination:      098.5764 deg
RA of node:       272.5148 deg
Eccentricity:    0.0350933
Arg of perigee:   018.1251 deg
Mean anomaly:     343.2043 deg
Mean motion:   13.52941713 rev/day
Decay rate:       -3.7e-07 rev/day^2
Epoch rev:           61351
Checksum:              299

Satellite: SO-33
Catalog number: 25509
Epoch time:      09018.82631018
Element set:     370
Inclination:      031.4282 deg
RA of node:       177.0555 deg
Eccentricity:    0.0354107
Arg of perigee:   112.5748 deg
Mean anomaly:     251.2736 deg
Mean motion:   14.28236037 rev/day
Decay rate:        5.0e-07 rev/day^2
Epoch rev:           53446
Checksum:              282

Satellite: AO-40
Catalog number: 26609
Epoch time:      09018.37611171
Element set:     180
Inclination:      008.5299 deg
RA of node:       037.4226 deg
Eccentricity:    0.7943071
Arg of perigee:   166.7501 deg
Mean anomaly:     245.3606 deg
Mean motion:   01.25583418 rev/day
Decay rate:       -2.8e-07 rev/day^2
Epoch rev:            3774
Checksum:              301

Satellite: VO-52
Catalog number: 28650
Epoch time:      09017.77878280
Element set:    0133
Inclination:      097.7635 deg
RA of node:       084.1881 deg
Eccentricity:    0.0027513
Arg of perigee:   158.5172 deg
Mean anomaly:     201.7175 deg
Mean motion:   14.81544246 rev/day
Decay rate:        2.5e-07 rev/day^2
Epoch rev:           20037
Checksum:              305

Satellite: PO-63
Catalog number: 29712
Epoch time:      09018.78612806
Element set:     159
Inclination:      097.8493 deg
RA of node:       078.6321 deg
Eccentricity:    0.0015031
Arg of perigee:   043.7496 deg
Mean anomaly:     316.4902 deg
Mean motion:   14.80414871 rev/day
Decay rate:       4.94e-06 rev/day^2
Epoch rev:           10936
Checksum:              320

/EX
SB KEPS @ AMSAT  $ORB09018.D
Orbital Elements  09018.MICROS

HR AMSAT ORBITAL ELEMENTS FOR THE MICROSATS
FROM WA5QGD FORT WORTH,TX January 18, 2009
Send Subscribe/unsubscribe to KEPS at 
http://www.amsat.org/mailman/listinfo/keps
BID: ORB09018.D
TO ALL RADIO AMATEURS BT

Satellite: AO-16
Catalog number: 20439
Epoch time:      09017.46962926
Element set:    0514
Inclination:      098.2587 deg
RA of node:       352.8919 deg
Eccentricity:    0.0009993
Arg of perigee:   259.3319 deg
Mean anomaly:     100.6737 deg
Mean motion:   14.31813274 rev/day
Decay rate:       -4.0e-07 rev/day^2
Epoch rev:           99158
Checksum:              340

Satellite: LO-19
Catalog number: 20442
Epoch time:      09018.52955033
Element set:     437
Inclination:      098.2246 deg
RA of node:       001.7254 deg
Eccentricity:    0.0010905
Arg of perigee:   252.3242 deg
Mean anomaly:     107.6758 deg
Mean motion:   14.32050632 rev/day
Decay rate:       -1.3e-07 rev/day^2
Epoch rev:           99189
Checksum:              283

Satellite: AO-27
Catalog number: 22825
Epoch time:      09018.54219305
Element set:     155
Inclination:      098.4179 deg
RA of node:       336.8385 deg
Eccentricity:    0.0008344
Arg of perigee:   351.9282 deg
Mean anomaly:     008.1768 deg
Mean motion:   14.29257267 rev/day
Decay rate:       1.12e-06 rev/day^2
Epoch rev:           79853
Checksum:              330

Satellite: IO-26
Catalog number: 22826
Epoch time:      09018.62866189
Element set:     874
Inclination:      098.4107 deg
RA of node:       337.7362 deg
Eccentricity:    0.0008949
Arg of perigee:   347.3274 deg
Mean anomaly:     012.7682 deg
Mean motion:   14.29507113 rev/day
Decay rate:       -6.0e-08 rev/day^2
Epoch rev:           79864
Checksum:              343

Satellite: GO-32
Catalog number: 25397
Epoch time:      09018.74163340
Element set:     800
Inclination:      098.3423 deg
RA of node:       048.9836 deg
Eccentricity:    0.0001187
Arg of perigee:   016.1086 deg
Mean anomaly:     344.0117 deg
Mean motion:   14.23153728 rev/day
Decay rate:       -5.7e-07 rev/day^2
Epoch rev:           54687
Checksum:              301

Satellite: NO-44
Catalog number: 26931
Epoch time:      09018.21410813
Element set:      76
Inclination:      067.0523 deg
RA of node:       090.7126 deg
Eccentricity:    0.0005865
Arg of perigee:   260.8231 deg
Mean anomaly:     099.2219 deg
Mean motion:   14.29544426 rev/day
Decay rate:       -7.5e-07 rev/day^2
Epoch rev:           38114
Checksum:              288

Satellite: SO-50
Catalog number: 27607
Epoch time:      09018.59709417
Element set:     793
Inclination:      064.5585 deg
RA of node:       119.4193 deg
Eccentricity:    0.0081137
Arg of perigee:   237.5643 deg
Mean anomaly:     121.7553 deg
Mean motion:   14.71409479 rev/day
Decay rate:        9.3e-07 rev/day^2
Epoch rev:           32666
Checksum:              333

Satellite: CO-55
Catalog number: 27844
Epoch time:      09017.76280702
Element set:     490
Inclination:      098.7153 deg
RA of node:       029.0404 deg
Eccentricity:    0.0009259
Arg of perigee:   215.0798 deg
Mean anomaly:     144.9771 deg
Mean motion:   14.20618076 rev/day
Decay rate:        4.7e-07 rev/day^2
Epoch rev:           28790
Checksum:              322

Satellite: CO-57
Catalog number: 27848
Epoch time:      09017.57863785
Element set:     437
Inclination:      098.7161 deg
RA of node:       027.9251 deg
Eccentricity:    0.0009111
Arg of perigee:   221.3440 deg
Mean anomaly:     138.7047 deg
Mean motion:   14.20422742 rev/day
Decay rate:        3.0e-08 rev/day^2
Epoch rev:           28784
Checksum:              309

Satellite: AO-51
Catalog number: 28375
Epoch time:      09018.63745075
Element set:     295
Inclination:      098.0567 deg
RA of node:       036.9243 deg
Eccentricity:    0.0082901
Arg of perigee:   219.1049 deg
Mean anomaly:     140.4133 deg
Mean motion:   14.40630679 rev/day
Decay rate:        1.0e-08 rev/day^2
Epoch rev:           23942
Checksum:              299

Satellite: CO-56
Catalog number: 28941
Epoch time:      09018.62232546
Element set:     736
Inclination:      098.1233 deg
RA of node:       167.0865 deg
Eccentricity:    0.0125272
Arg of perigee:   331.8942 deg
Mean anomaly:     027.5612 deg
Mean motion:   15.69614580 rev/day
Decay rate:     2.3073e-04 rev/day^2
Epoch rev:           16368
Checksum:              322

Satellite: CP3
Catalog number: 31128
Epoch time:      09018.68588960
Element set:     534
Inclination:      098.0129 deg
RA of node:       078.6887 deg
Eccentricity:    0.0103557
Arg of perigee:   028.8413 deg
Mean anomaly:     331.8449 deg
Mean motion:   14.52010951 rev/day
Decay rate:       -4.7e-07 rev/day^2
Epoch rev:            9320
Checksum:              314

Satellite: CP4
Catalog number: 31132
Epoch time:      09017.83660418
Element set:     512
Inclination:      098.0173 deg
RA of node:       081.1172 deg
Eccentricity:    0.0086344
Arg of perigee:   022.2282 deg
Mean anomaly:     338.2571 deg
Mean motion:   14.55175939 rev/day
Decay rate:       -6.9e-07 rev/day^2
Epoch rev:            9316
Checksum:              289

Satellite: CO-65
Catalog number: 32785
Epoch time:      09018.31713423
Element set:     267
Inclination:      097.9671 deg
RA of node:       083.3783 deg
Eccentricity:    0.0015338
Arg of perigee:   154.3550 deg
Mean anomaly:     205.8423 deg
Mean motion:   14.81438556 rev/day
Decay rate:       -9.6e-07 rev/day^2
Epoch rev:            3925
Checksum:              322

/EX
SB KEPS @ AMSAT  $ORB09018.W
Orbital Elements  09018.WEATHER

HR AMSAT ORBITAL ELEMENTS FOR WEATHER SATELLITES
FROM WA5QGD FORT WORTH,TX January 18, 2009
Send Subscribe/unsubscribe to KEPS at 
http://www.amsat.org/mailman/listinfo/keps
BID: ORB09018.W
TO ALL RADIO AMATEURS BT

Satellite: NOAA-10
Catalog number: 16969
Epoch time:      09018.28749538
Element set:     464
Inclination:      098.7067 deg
RA of node:       045.6431 deg
Eccentricity:    0.0011557
Arg of perigee:   274.8064 deg
Mean anomaly:     085.1783 deg
Mean motion:   14.27378028 rev/day
Decay rate:       -2.1e-07 rev/day^2
Epoch rev:           16212
Checksum:              321

